QPF
0.00 0.00 0.00 0.01 0.01 0.01 0.01 0.00 0.01 0.01 0.01 0.01 0.00 0.00 0.00 0.00 0.01 0.00 0.00 0.00 0.01 0.01 0.02 0.02 0.02 0.02 0.02 0.02 0.02 0.02 0.01 0.01 0.01 0.01 0.01 0.01 0.01 0.01 0.01 0.01 0.01 0.01 0.02
0.00 0.00 0.01 0.01 0.03 0.02 0.02 0.02 0.01 0.01 0.01 0.00 0.00 0.00 0.01 0.01 0.02 0.01 0.01 0.01 0.02 0.02 0.03 0.03 0.03 0.02 0.02 0.02 0.02 0.02 0.02 0.01 0.01 0.02 0.01 0.01 0.01 0.01 0.02 0.02 0.02 0.02 0.02
0.01 0.01 0.03 0.05 0.05 0.04 0.03 0.03 0.03 0.01 0.01 0.01 0.01 0.01 0.02 0.02 0.02 0.01 0.01 0.02 0.02 0.03 0.03 0.02 0.02 0.02 0.03 0.03 0.02 0.02 0.02 0.02 0.01 0.02 0.01 0.01 0.01 0.01 0.01 0.01 0.01 0.01 0.01
0.05 0.05 0.05 0.06 0.07 0.06 0.05 0.05 0.03 0.02 0.02 0.02 0.02 0.01 0.02 0.02 0.03 0.02 0.02 0.02 0.02 0.02 0.02 0.02 0.02 0.02 0.02 0.02 0.02 0.02 0.02 0.01 0.02 0.02 0.02 0.02 0.01 0.01 0.01 0.01 0.01 0.01 0.01
0.08 0.06 0.06 0.08 0.10 0.09 0.08 0.06 0.04 0.04 0.03 0.03 0.02 0.02 0.02 0.02 0.03 0.03 0.03 0.02 0.02 0.02 0.01 0.01 0.02 0.02 0.02 0.01 0.01 0.01 0.01 0.01 0.02 0.02 0.01 0.01 0.01 0.01 0.01 0.01 0.01 0.01 0.01
0.13 0.13 0.13 0.14 0.12 0.12 0.10 0.08 0.06 0.05 0.03 0.03 0.03 0.03 0.03 0.02 0.02 0.02 0.02 0.01 0.01 0.01 0.00 0.00 0.01 0.01 0.01 0.00 0.00 0.01 0.01 0.01 0.01 0.01 0.01 0.00 0.00 0.00 0.00 0.00 0.00 0.00 0.00
0.22 0.22 0.21 0.20 0.17 0.15 0.12 0.09 0.07 0.06 0.05 0.05 0.04 0.03 0.03 0.03 0.03 0.02 0.01 0.01 0.01 0.01 0.00 0.00 0.00 0.00 0.00 0.00 0.00 0.00 0.00 0.00 0.00 0.00 0.00 0.00 0.00 0.00 0.00 0.00 0.00 0.00 0.00
0.32 0.32 0.27 0.26 0.22 0.18 0.14 0.11 0.10 0.09 0.07 0.06 0.05 0.03 0.03 0.03 0.02 0.01 0.01 0.01 0.01 0.01 0.01 0.01 0.01 0.00 0.00 0.00 0.00 0.00 0.01 0.01 0.00 0.00 0.00 0.00 0.00 0.00 0.00 0.00 0.00 0.00 0.00
0.43 0.39 0.35 0.29 0.25 0.19 0.16 0.14 0.12 0.09 0.07 0.07 0.06 0.04 0.04 0.03 0.02 0.02 0.02 0.01 0.01 0.01 0.00 0.00 0.00 0.00 0.00 0.00 0.00 0.00 0.00 0.00 0.00 0.00 0.00 0.01 0.00 0.00 0.00 0.00 0.00 0.00 0.00
0.40 0.37 0.32 0.29 0.25 0.20 0.16 0.13 0.10 0.08 0.07 0.06 0.04 0.03 0.03 0.02 0.02 0.02 0.01 0.01 0.00 0.00 0.00 0.00 0.00 0.00 0.00 0.00 0.00 0.00 0.00 0.00 0.00 0.00 0.00 0.01 0.01 0.01 0.01 0.01 0.01 0.01 0.01
0.33 0.29 0.25 0.23 0.21 0.17 0.14 0.11 0.09 0.08 0.08 0.08 0.06 0.04 0.03 0.03 0.02 0.02 0.01 0.01 0.00 0.00 0.00 0.00 0.00 0.00 0.00 0.00 0.00 0.00 0.00 0.00 0.00 0.00 0.00 0.00 0.00 0.00 0.01 0.01 0.01 0.01 0.01
0.27 0.24 0.20 0.17 0.14 0.13 0.12 0.11 0.10 0.10 0.09 0.06 0.04 0.03 0.02 0.02 0.02 0.01 0.01 0.00 0.00 0.00 0.00 0.00 0.00 0.00 0.00 0.00 0.00 0.00 0.00 0.00 0.00 0.00 0.00 0.00 0.00 0.00 0.00 0.00 0.00 0.00 0.00
0.22 0.19 0.16 0.12 0.09 0.08 0.08 0.06 0.05 0.04 0.03 0.02 0.02 0.02 0.02 0.02 0.01 0.01 0.00 0.00 0.00 0.00 0.00 0.00 0.00 0.00 0.00 0.00 0.00 0.00 0.00 0.00 0.00 0.00 0.00 0.00 0.00 0.00 0.00 0.00 0.00 0.00 0.01
0.18 0.13 0.09 0.06 0.04 0.03 0.03 0.02 0.02 0.03 0.03 0.03 0.03 0.02 0.02 0.01 0.01 0.00 0.00 0.00 0.00 0.00 0.00 0.00 0.00 0.00 0.00 0.00 0.00 0.00 0.00 0.00 0.00 0.00 0.00 0.00 0.00 0.00 0.00 0.00 0.00 0.01 0.01
0.09 0.06 0.03 0.02 0.01 0.01 0.02 0.03 0.03 0.03 0.02 0.02 0.02 0.01 0.01 0.01 0.00 0.00 0.00 0.00 0.00 0.00 0.00 0.00 0.00 0.00 0.00 0.00 0.00 0.00 0.00 0.00 0.00 0.00 0.00 0.00 0.00 0.00 0.00 0.00 0.00 0.01 0.01
0.06 0.04 0.03 0.02 0.01 0.01 0.01 0.01 0.01 0.00 0.00 0.00 0.00 0.00 0.00 0.00 0.00 0.00 0.00 0.00 0.00 0.00 0.00 0.00 0.00 0.00 0.00 0.00 0.00 0.00 0.00 0.00 0.00 0.00 0.00 0.00 0.00 0.00 0.00 0.00 0.01 0.01 0.01
0.04 0.02 0.02 0.01 0.01 0.00 0.00 0.00 0.00 0.00 0.00 0.00 0.00 0.00 0.00 0.00 0.00 0.00 0.00 0.00 0.00 0.00 0.00 0.00 0.00 0.00 0.00 0.00 0.00 0.00 0.00 0.00 0.00 0.00 0.00 0.00 0.00 0.00 0.00 0.00 0.01 0.01 0.01
0.02 0.02 0.01 0.01 0.01 0.00 0.00 0.00 0.00 0.00 0.00 0.00 0.00 0.00 0.00 0.00 0.00 0.00 0.00 0.00 0.00 0.00 0.00 0.00 0.00 0.00 0.00 0.00 0.00 0.00 0.00 0.00 0.00 0.00 0.00 0.00 0.00 0.00 0.00 0.00 0.00 0.00 0.00
0.03 0.02 0.02 0.01 0.01 0.01 0.01 0.00 0.00 0.00 0.00 0.00 0.00 0.00 0.00 0.00 0.00 0.00 0.00 0.00 0.00 0.00 0.00 0.00 0.00 0.00 0.00 0.00 0.00 0.00 0.00 0.00 0.00 0.00 0.00 0.00 0.00 0.00 0.00 0.00 0.00 0.00 0.00
0.02 0.02 0.02 0.02 0.01 0.01 0.00 0.00 0.00 0.00 0.00 0.00 0.00 0.00 0.00 0.00 0.00 0.00 0.00 0.00 0.00 0.00 0.00 0.00 0.00 0.00 0.00 0.00 0.00 0.00 0.00 0.00 0.00 0.00 0.00 0.00 0.00 0.00 0.00 0.00 0.00 0.00 0.00
0.02 0.01 0.01 0.01 0.00 0.00 0.00 0.00 0.00 0.00 0.00 0.00 0.00 0.00 0.00 0.00 0.00 0.00 0.00 0.00 0.00 0.00 0.00 0.00 0.00 0.00 0.00 0.00 0.00 0.00 0.00 0.00 0.00 0.00 0.00 0.00 0.00 0.00 0.00 0.00 0.00 0.00 0.00
0.00 0.00 0.00 0.00 0.00 0.00 0.00 0.00 0.00 0.00 0.00 0.00 0.00 0.00 0.00 0.00 0.00 0.00 0.00 0.00 0.00 0.00 0.00 0.00 0.00 0.00 0.00 0.00 0.00 0.00 0.00 0.01 0.01 0.00 0.00 0.00 0.00 0.00 0.00 0.00 0.00 0.00 0.00
0.00 0.00 0.00 0.00 0.00 0.00 0.00 0.00 0.00 0.00 0.00 0.00 0.00 0.00 0.00 0.00 0.00 0.00 0.00 0.00 0.00 0.00 0.00 0.00 0.00 0.00 0.00 0.00 0.00 0.01 0.01 0.01 0.01 0.00 0.00 0.00 0.00 0.00 0.00 0.00 0.00 0.00 0.00
0.01 0.01 0.01 0.00 0.00 0.00 0.00 0.00 0.00 0.00 0.00 0.00 0.00 0.00 0.00 0.00 0.00 0.00 0.00 0.00 0.00 0.00 0.00 0.00 0.00 0.00 0.00 0.00 0.01 0.01 0.01 0.01 0.00 0.00 0.00 0.01 0.00 0.00 0.00 0.00 0.00 0.00 0.00
0.01 0.01 0.01 0.01 0.01 0.00 0.00 0.00 0.00 0.00 0.00 0.00 0.00 0.00 0.00 0.00 0.00 0.00 0.00 0.00 0.00 0.01 0.01 0.01 0.01 0.00 0.00 0.01 0.01 0.01 0.01 0.01 0.01 0.00 0.00 0.00 0.00 0.00 0.00 0.00 0.00 0.00 0.00
0.01 0.01 0.02 0.02 0.01 0.00 0.00 0.00 0.00 0.00 0.00 0.00 0.00 0.00 0.00 0.00 0.00 0.00 0.00 0.00 0.01 0.01 0.01 0.00 0.00 0.00 0.00 0.00 0.00 0.00 0.00 0.00 0.01 0.01 0.00 0.01 0.01 0.02 0.02 0.00 0.00 0.00 0.00
MSLP
1018.24 1018.48 1018.69 1018.87 1019.02 1019.15 1019.26 1019.36 1019.43 1019.49 1019.53 1019.56 1019.59 1019.64 1019.70 1019.79 1019.90 1020.04 1020.19 1020.35 1020.51 1020.65 1020.80 1020.94 1021.10 1021.27 1021.45 1021.65 1021.85 1022.05 1022.22 1022.36 1022.46 1022.54 1022.59 1022.64 1022.68 1022.73 1022.78 1022.83 1022.88 1022.90 1022.90
1018.04 1018.23 1018.42 1018.61 1018.79 1018.97 1019.14 1019.29 1019.42 1019.53 1019.62 1019.70 1019.76 1019.83 1019.91 1020.00 1020.11 1020.24 1020.37 1020.51 1020.64 1020.78 1020.92 1021.06 1021.22 1021.39 1021.58 1021.77 1021.95 1022.13 1022.28 1022.40 1022.50 1022.57 1022.64 1022.70 1022.76 1022.83 1022.90 1022.95 1022.99 1023.00 1022.98
1017.76 1017.91 1018.08 1018.29 1018.51 1018.75 1019.00 1019.23 1019.45 1019.63 1019.79 1019.92 1020.04 1020.14 1020.24 1020.35 1020.45 1020.56 1020.67 1020.78 1020.89 1021.00 1021.12 1021.25 1021.39 1021.55 1021.71 1021.88 1022.04 1022.18 1022.30 1022.40 1022.48 1022.56 1022.63 1022.71 1022.80 1022.89 1022.98 1023.05 1023.10 1023.11 1023.09
1017.47 1017.59 1017.75 1017.97 1018.24 1018.55 1018.87 1019.19 1019.49 1019.76 1020.00 1020.20 1020.37 1020.52 1020.65 1020.77 1020.87 1020.97 1021.06 1021.13 1021.21 1021.29 1021.38 1021.47 1021.59 1021.72 1021.85 1021.98 1022.10 1022.20 1022.28 1022.35 1022.41 1022.48 1022.56 1022.65 1022.77 1022.89 1023.00 1023.10 1023.17 1023.20 1023.18
1017.24 1017.33 1017.50 1017.73 1018.04 1018.39 1018.78 1019.17 1019.55 1019.89 1020.20 1020.47 1020.69 1020.89 1021.05 1021.19 1021.31 1021.39 1021.46 1021.51 1021.56 1021.60 1021.65 1021.71 1021.79 1021.88 1021.98 1022.07 1022.15 1022.21 1022.25 1022.29 1022.32 1022.37 1022.44 1022.54 1022.66 1022.80 1022.94 1023.06 1023.15 1023.20 1023.21
1017.14 1017.23 1017.38 1017.63 1017.95 1018.33 1018.76 1019.19 1019.61 1020.01 1020.37 1020.69 1020.96 1021.20 1021.40 1021.57 1021.69 1021.78 1021.84 1021.87 1021.88 1021.90 1021.92 1021.95 1022.00 1022.06 1022.12 1022.17 1022.21 1022.23 1022.24 1022.23 1022.24 1022.26 1022.31 1022.40 1022.52 1022.66 1022.81 1022.94 1023.05 1023.11 1023.13
1017.23 1017.32 1017.47 1017.70 1018.01 1018.39 1018.82 1019.26 1019.69 1020.11 1020.50 1020.85 1021.16 1021.43 1021.67 1021.86 1022.00 1022.10 1022.15 1022.17 1022.18 1022.17 1022.17 1022.18 1022.21 1022.24 1022.28 1022.31 1022.32 1022.31 1022.28 1022.24 1022.21 1022.19 1022.21 1022.27 1022.36 1022.49 1022.62 1022.75 1022.85 1022.91 1022.93
1017.54 1017.62 1017.76 1017.97 1018.25 1018.60 1018.99 1019.40 1019.81 1020.22 1020.61 1020.97 1021.30 1021.60 1021.86 1022.08 1022.24 1022.36 1022.42 1022.44 1022.44 1022.43 1022.42 1022.42 1022.44 1022.46 1022.49 1022.50 1022.50 1022.46 1022.41 1022.34 1022.26 1022.21 1022.18 1022.19 1022.24 1022.31 1022.41 1022.49 1022.57 1022.61 1022.61
1018.05 1018.14 1018.25 1018.43 1018.66 1018.95 1019.28 1019.64 1020.01 1020.38 1020.75 1021.10 1021.44 1021.76 1022.04 1022.27 1022.46 1022.59 1022.66 1022.70 1022.70 1022.69 1022.68 1022.68 1022.70 1022.73 1022.75 1022.76 1022.74 1022.69 1022.62 1022.52 1022.40 1022.30 1022.22 1022.17 1022.15 1022.16 1022.18 1022.21 1022.23 1022.23 1022.20
1018.73 1018.81 1018.91 1019.05 1019.22 1019.45 1019.71 1020.00 1020.31 1020.64 1020.97 1021.31 1021.64 1021.96 1022.25 1022.50 1022.70 1022.84 1022.93 1022.98 1022.99 1022.99 1022.98 1022.99 1023.01 1023.03 1023.05 1023.06 1023.03 1022.97 1022.87 1022.74 1022.59 1022.44 1022.30 1022.18 1022.08 1022.01 1021.96 1021.91 1021.86 1021.80 1021.71
1019.50 1019.59 1019.66 1019.76 1019.89 1020.05 1020.25 1020.48 1020.73 1021.01 1021.31 1021.62 1021.94 1022.25 1022.54 1022.79 1023.00 1023.16 1023.25 1023.31 1023.33 1023.33 1023.33 1023.33 1023.35 1023.37 1023.38 1023.37 1023.33 1023.24 1023.12 1022.96 1022.77 1022.56 1022.36 1022.18 1022.01 1021.86 1021.72 1021.60 1021.47 1021.33 1021.19
1020.29 1020.38 1020.45 1020.52 1020.62 1020.74 1020.89 1021.07 1021.28 1021.52 1021.78 1022.06 1022.36 1022.65 1022.93 1023.17 1023.38 1023.53 1023.63 1023.68 1023.70 1023.71 1023.70 1023.70 1023.70 1023.69 1023.68 1023.64 1023.57 1023.45 1023.29 1023.09 1022.85 1022.61 1022.36 1022.11 1021.88 1021.66 1021.45 1021.25 1021.05 1020.85 1020.64
1021.06 1021.15 1021.22 1021.29 1021.37 1021.47 1021.59 1021.74 1021.92 1022.13 1022.36 1022.62 1022.88 1023.14 1023.40 1023.62 1023.80 1023.94 1024.03 1024.08 1024.10 1024.09 1024.08 1024.05 1024.02 1023.98 1023.93 1023.84 1023.71 1023.54 1023.33 1023.08 1022.81 1022.52 1022.22 1021.93 1021.65 1021.38 1021.11 1020.85 1020.60 1020.34 1020.09
1021.76 1021.87 1021.95 1022.03 1022.11 1022.21 1022.33 1022.47 1022.63 1022.82 1023.02 1023.24 1023.46 1023.69 1023.90 1024.08 1024.24 1024.35 1024.42 1024.46 1024.47 1024.45 1024.42 1024.37 1024.29 1024.20 1024.08 1023.92 1023.73 1023.49 1023.21 1022.91 1022.59 1022.27 1021.94 1021.61 1021.30 1021.00 1020.70 1020.40 1020.11 1019.82 1019.53
1022.40 1022.53 1022.64 1022.74 1022.84 1022.96 1023.09 1023.22 1023.37 1023.53 1023.70 1023.88 1024.05 1024.22 1024.37 1024.51 1024.62 1024.70 1024.75 1024.77 1024.77 1024.74 1024.68 1024.59 1024.48 1024.32 1024.13 1023.89 1023.61 1023.29 1022.95 1022.59 1022.22 1021.86 1021.50 1021.16 1020.84 1020.52 1020.21 1019.89 1019.58 1019.28 1018.97
1023.00 1023.16 1023.29 1023.42 1023.56 1023.69 1023.83 1023.97 1024.10 1024.24 1024.36 1024.48 1024.59 1024.69 1024.78 1024.85 1024.91 1024.95 1024.97 1024.98 1024.96 1024.91 1024.83 1024.72 1024.55 1024.33 1024.06 1023.74 1023.38 1022.98 1022.56 1022.14 1021.72 1021.33 1020.96 1020.61 1020.27 1019.95 1019.64 1019.33 1019.02 1018.70 1018.39
1023.61 1023.78 1023.94 1024.10 1024.26 1024.41 1024.55 1024.68 1024.79 1024.88 1024.95 1025.01 1025.04 1025.06 1025.07 1025.07 1025.07 1025.07 1025.06 1025.04 1025.01 1024.95 1024.86 1024.71 1024.50 1024.23 1023.90 1023.50 1023.05 1022.58 1022.09 1021.61 1021.16 1020.73 1020.34 1019.98 1019.65 1019.33 1019.02 1018.72 1018.41 1018.09 1017.78
1024.23 1024.42 1024.60 1024.77 1024.93 1025.09 1025.22 1025.32 1025.40 1025.45 1025.45 1025.43 1025.39 1025.32 1025.25 1025.18 1025.12 1025.06 1025.02 1024.98 1024.93 1024.86 1024.75 1024.58 1024.34 1024.03 1023.64 1023.18 1022.68 1022.14 1021.60 1021.08 1020.58 1020.13 1019.72 1019.35 1019.01 1018.69 1018.38 1018.07 1017.76 1017.45 1017.14
1024.88 1025.07 1025.25 1025.41 1025.57 1025.71 1025.81 1025.89 1025.92 1025.91 1025.85 1025.75 1025.63 1025.49 1025.33 1025.19 1025.06 1024.95 1024.86 1024.79 1024.72 1024.63 1024.51 1024.32 1024.06 1023.73 1023.30 1022.81 1022.27 1021.70 1021.12 1020.57 1020.05 1019.57 1019.14 1018.75 1018.40 1018.06 1017.73 1017.40 1017.08 1016.76 1016.44
1025.52 1025.69 1025.85 1026.00 1026.13 1026.24 1026.31 1026.33 1026.32 1026.25 1026.13 1025.97 1025.78 1025.56 1025.34 1025.12 1024.93 1024.76 1024.63 1024.51 1024.41 1024.30 1024.15 1023.95 1023.68 1023.33 1022.90 1022.40 1021.84 1021.26 1020.67 1020.10 1019.57 1019.07 1018.62 1018.21 1017.82 1017.45 1017.09 1016.74 1016.38 1016.04 1015.71
1026.12 1026.26 1026.38 1026.49 1026.58 1026.65 1026.67 1026.65 1026.59 1026.47 1026.31 1026.09 1025.85 1025.57 1025.29 1025.01 1024.76 1024.53 1024.34 1024.17 1024.02 1023.87 1023.70 1023.48 1023.21 1022.85 1022.43 1021.94 1021.40 1020.83 1020.25 1019.68 1019.15 1018.64 1018.17 1017.73 1017.31 1016.90 1016.49 1016.09 1015.69 1015.30 1014.94
1026.61 1026.71 1026.80 1026.86 1026.90 1026.91 1026.89 1026.83 1026.72 1026.57 1026.37 1026.13 1025.85 1025.53 1025.21 1024.88 1024.56 1024.27 1024.01 1023.78 1023.57 1023.38 1023.17 1022.93 1022.65 1022.30 1021.90 1021.44 1020.93 1020.40 1019.85 1019.31 1018.78 1018.28 1017.79 1017.32 1016.86 1016.40 1015.93 1015.47 1015.01 1014.58 1014.17
1026.98 1027.03 1027.07 1027.08 1027.07 1027.03 1026.97 1026.87 1026.74 1026.57 1026.35 1026.09 1025.79 1025.46 1025.09 1024.72 1024.35 1023.99 1023.66 1023.36 1023.09 1022.84 1022.58 1022.32 1022.03 1021.70 1021.33 1020.91 1020.45 1019.97 1019.47 1018.96 1018.46 1017.96 1017.47 1016.97 1016.47 1015.96 1015.44 1014.92 1014.40 1013.90 1013.43
1027.21 1027.22 1027.21 1027.17 1027.11 1027.03 1026.93 1026.80 1026.65 1026.47 1026.25 1025.99 1025.68 1025.33 1024.95 1024.54 1024.12 1023.70 1023.30 1022.93 1022.58 1022.27 1021.97 1021.69 1021.39 1021.08 1020.74 1020.37 1019.96 1019.54 1019.09 1018.63 1018.16 1017.68 1017.19 1016.68 1016.15 1015.60 1015.03 1014.44 1013.86 1013.30 1012.77
1027.33 1027.30 1027.25 1027.17 1027.07 1026.95 1026.82 1026.67 1026.51 1026.32 1026.10 1025.84 1025.53 1025.17 1024.77 1024.33 1023.86 1023.38 1022.92 1022.48 1022.07 1021.70 1021.36 1021.05 1020.75 1020.45 1020.15 1019.82 1019.48 1019.11 1018.72 1018.31 1017.88 1017.42 1016.94 1016.43 1015.88 1015.30 1014.70 1014.07 1013.44 1012.82 1012.23
1027.37 1027.32 1027.24 1027.14 1027.01 1026.86 1026.70 1026.53 1026.35 1026.15 1025.92 1025.66 1025.34 1024.97 1024.55 1024.07 1023.57 1023.05 1022.53 1022.03 1021.57 1021.15 1020.78 1020.45 1020.15 1019.87 1019.59 1019.31 1019.01 1018.69 1018.35 1017.98 1017.59 1017.16 1016.70 1016.20 1015.65 1015.07 1014.45 1013.79 1013.13 1012.47 1011.84
Thickness
5731 5728 5726 5723 5721 5719 5716 5714 5711 5710 5708 5707 5705 5703 5702 5700 5697 5695 5693 5690 5689 5687 5685 5683 5682 5680 5678 5677 5676 5674 5673 5672 5671 5670 5669 5668 5668 5667 5666 5665 5664 5664 5663
5730 5727 5725 5722 5720 5717 5715 5712 5710 5707 5705 5704 5702 5700 5698 5696 5694 5692 5689 5687 5684 5682 5681 5679 5677 5675 5673 5672 5670 5669 5668 5666 5665 5664 5663 5662 5661 5660 5659 5658 5658 5657 5656
5729 5726 5723 5720 5718 5715 5713 5710 5707 5705 5702 5700 5697 5695 5693 5691 5689 5687 5685 5682 5680 5677 5675 5674 5672 5670 5668 5666 5664 5662 5660 5659 5658 5657 5655 5654 5653 5652 5651 5650 5649 5649 5648
5727 5724 5721 5718 5715 5712 5709 5706 5703 5700 5697 5695 5692 5689 5687 5685 5683 5681 5679 5677 5675 5672 5670 5668 5666 5663 5661 5659 5656 5654 5653 5651 5649 5648 5647 5645 5644 5643 5641 5640 5640 5639 5639
5724 5721 5718 5715 5712 5708 5705 5702 5698 5695 5691 5688 5686 5683 5680 5678 5676 5674 5672 5670 5668 5666 5663 5660 5658 5656 5654 5651 5649 5647 5645 5642 5640 5639 5637 5636 5635 5633 5632 5631 5630 5629 5629
5719 5716 5712 5709 5706 5703 5699 5696 5692 5688 5685 5682 5680 5675 5672 5670 5668 5666 5664 5662 5660 5658 5656 5653 5650 5648 5645 5643 5641 5639 5637 5634 5632 5630 5628 5626 5625 5623 5621 5620 5619 5618 5617
5713 5710 5707 5703 5700 5697 5693 5690 5685 5681 5676 5674 5670 5666 5663 5661 5659 5657 5655 5653 5650 5648 5646 5644 5641 5639 5637 5634 5632 5629 5627 5626 5623 5621 5619 5617 5615 5613 5611 5609 5607 5606 5605
5705 5702 5699 5695 5692 5688 5684 5682 5678 5673 5668 5665 5663 5658 5653 5650 5649 5647 5645 5643 5640 5638 5636 5633 5631 5629 5626 5624 5621 5619 5617 5615 5613 5611 5609 5607 5604 5602 5599 5597 5596 5594 5592
5696 5692 5690 5686 5683 5680 5676 5673 5671 5667 5661 5655 5654 5652 5647 5644 5639 5635 5633 5631 5629 5627 5624 5622 5619 5617 5615 5613 5610 5608 5606 5604 5602 5600 5598 5595 5592 5589 5587 5585 5583 5581 5579
5686 5683 5680 5677 5673 5670 5667 5664 5661 5659 5655 5648 5643 5640 5638 5636 5631 5625 5621 5618 5616 5614 5611 5609 5606 5603 5602 5599 5597 5594 5592 5590 5588 5586 5584 5581 5578 5575 5573 5570 5568 5566 5564
5674 5671 5669 5666 5663 5659 5656 5652 5650 5647 5644 5639 5634 5630 5626 5621 5618 5616 5610 5605 5602 5599 5596 5594 5591 5589 5586 5584 5582 5579 5577 5574 5572 5570 5567 5565 5562 5559 5557 5554 5552 5550 5549
5661 5658 5656 5653 5650 5647 5643 5640 5637 5633 5629 5626 5621 5617 5614 5610 5605 5602 5597 5591 5588 5585 5581 5578 5575 5572 5570 5567 5565 5563 5561 5558 5556 5553 5550 5547 5545 5542 5540 5537 5535 5534 5532
5647 5644 5642 5639 5635 5632 5629 5626 5622 5618 5615 5611 5606 5602 5598 5594 5590 5586 5582 5577 5573 5569 5566 5563 5559 5556 5553 5550 5548 5546 5544 5541 5538 5536 5533 5531 5528 5525 5523 5521 5519 5517 5515
5634 5631 5628 5624 5621 5618 5614 5610 5606 5602 5598 5594 5590 5586 5582 5577 5574 5570 5566 5561 5558 5554 5550 5547 5543 5540 5537 5534 5532 5529 5527 5524 5522 5520 5517 5515 5513 5510 5508 5505 5503 5501 5499
5619 5616 5613 5609 5605 5601 5597 5594 5589 5584 5581 5577 5572 5569 5564 5559 5556 5552 5548 5544 5541 5538 5535 5529 5526 5523 5520 5517 5516 5513 5511 5509 5506 5504 5502 5500 5498 5495 5493 5490 5488 5486 5484
5603 5600 5596 5592 5587 5583 5579 5576 5571 5567 5563 5559 5555 5551 5547 5542 5538 5534 5529 5525 5521 5518 5516 5512 5508 5505 5502 5500 5499 5497 5496 5494 5492 5490 5489 5487 5484 5481 5479 5477 5475 5473 5471
5586 5582 5578 5574 5570 5565 5561 5557 5553 5549 5546 5541 5537 5533 5528 5524 5520 5515 5511 5507 5503 5499 5497 5495 5490 5488 5486 5486 5486 5484 5482 5481 5480 5478 5476 5475 5472 5470 5467 5465 5463 5461 5459
5568 5564 5560 5555 5551 5547 5543 5539 5535 5531 5527 5523 5518 5515 5511 5507 5502 5498 5494 5490 5486 5482 5479 5478 5476 5473 5472 5471 5471 5470 5470 5469 5468 5467 5465 5464 5462 5460 5458 5455 5453 5451 5449
5551 5547 5543 5538 5533 5530 5526 5521 5517 5512 5508 5504 5500 5497 5493 5489 5486 5482 5478 5475 5471 5468 5463 5460 5460 5458 5458 5458 5459 5459 5458 5457 5457 5457 5456 5455 5454 5452 5449 5447 5445 5443 5441
5534 5529 5525 5521 5517 5513 5509 5504 5499 5495 5491 5487 5483 5480 5476 5473 5470 5467 5464 5461 5457 5453 5450 5448 5447 5447 5447 5448 5447 5449 5450 5450 5449 5449 5449 5447 5446 5444 5442 5441 5439 5437 5434
5518 5513 5509 5505 5500 5496 5492 5487 5483 5478 5473 5470 5466 5463 5460 5459 5457 5453 5451 5448 5444 5441 5439 5437 5437 5438 5439 5440 5440 5440 5441 5443 5444 5444 5443 5440 5439 5439 5437 5435 5433 5431 5428
5502 5498 5493 5489 5484 5480 5476 5472 5467 5462 5457 5453 5450 5447 5445 5444 5441 5438 5436 5434 5433 5432 5431 5429 5430 5431 5433 5433 5433 5433 5435 5437 5440 5439 5436 5435 5434 5433 5432 5430 5428 5425 5422
5487 5482 5478 5474 5469 5465 5460 5456 5451 5446 5442 5438 5435 5432 5431 5429 5426 5424 5423 5423 5424 5424 5424 5423 5425 5427 5428 5429 5428 5430 5431 5431 5432 5434 5431 5432 5431 5429 5428 5426 5424 5421 5418
5472 5468 5463 5459 5455 5450 5446 5441 5436 5432 5428 5425 5422 5420 5418 5417 5417 5415 5415 5416 5418 5420 5421 5422 5423 5425 5426 5427 5426 5427 5427 5427 5428 5429 5427 5426 5428 5426 5424 5422 5420 5417 5413
5460 5455 5451 5446 5441 5436 5432 5428 5423 5419 5416 5414 5413 5412 5410 5410 5410 5408 5409 5411 5414 5419 5421 5422 5424 5425 5426 5427 5426 5426 5426 5425 5426 5428 5425 5421 5423 5421 5420 5418 5415 5411 5408
5449 5444 5439 5434 5429 5423 5419 5415 5411 5408 5406 5406 5406 5407 5407 5406 5407 5407 5407 5409 5412 5417 5419 5422 5425 5427 5428 5428 5428 5426 5424 5422 5422 5423 5423 5418 5418 5415 5416 5413 5410 5408 5405